Weather History for Harrisburg, IL

Change the Weather History Date:

Monday, May 20, 2013

  Actual Average (KMWA) Record (KMWA)
Temperature  
Mean Temperature 78 °F -  
Max Temperature 87 °F 77 °F 91 °F (2012)
Min Temperature 70 °F 55 °F 40 °F (1976)
Cooling Degree Days 13    
Growing Degree Days 28 (Base 50)    
Moisture  
Dew Point 68 °F    
Average Humidity 69    
Maximum Humidity 94    
Minimum Humidity 45    
Precipitation  
Precipitation 0.00 in - - ()
Sea Level Pressure  
Sea Level Pressure 29.89 in    
Wind  
Wind Speed 11 mph (SSW)    
Max Wind Speed 18 mph    
Max Gust Speed 26 mph    
Visibility 10 miles    
Events      
Averages and records for this station are not official NWS values.
T = Trace of Precipitation, MM = Missing Value Source: NWS Daily Summary

Daily Weather History Graph

Daily Weather History Graph

Search for Another Location

Airport:

Trip Planner

Search our weather history database for the weather conditions in past years. The results will help you decide how hot, cold, wet, or windy it might be!

Date:

Astronomy

May. 20, 2013 Rise Set
Actual Time 5:40 AM CDT 8:01 PM CDT
Civil Twilight 5:10 AM CDT 8:31 PM CDT
Nautical Twilight 4:33 AM CDT 9:08 PM CDT
Astronomical Twilight 3:53 AM CDT 9:49 PM CDT
Moon 3:13 PM CDT (5/20) 2:29 AM CDT (5/20)
Length of Visible Light 15h 21m
Length of Day
14h 21m
Waxing Gibbous, 75% of the Moon is Illuminated
May 20
Waxing Gibbous
May 24
Full
May 31
Last Quarter
Jun 8
New
Jun 16
First Quarter

Hourly Weather History & Observations

Time (CDT) Temp. Heat Index Dew Point Humidity Pressure Visibility Wind Dir Wind Speed Gust Speed Precip Events Conditions
12:15 AM 76.6 °F - 68.5 °F 76% 29.91 in 10.0 mi SSW 10.4 mph - N/A   Scattered Clouds
12:35 AM 76.5 °F - 68.9 °F 77% 29.89 in 10.0 mi South 10.4 mph - N/A   Scattered Clouds
12:55 AM 76.6 °F - 68.9 °F 77% 29.89 in 10.0 mi South 12.7 mph 20.7 mph N/A   Clear
1:15 AM 76.3 °F - 68.9 °F 78% 29.89 in 10.0 mi SSW 13.8 mph 18.4 mph N/A   Clear
1:35 AM 76.1 °F - 69.1 °F 79% 29.89 in 10.0 mi SSW 10.4 mph - N/A   Clear
1:55 AM 75.6 °F - 68.9 °F 80% 29.89 in 10.0 mi South 9.2 mph - N/A   Clear
2:15 AM 75.2 °F - 68.9 °F 81% 29.89 in 10.0 mi South 8.1 mph - N/A   Clear
2:35 AM 74.8 °F - 68.7 °F 81% 29.89 in 10.0 mi South 9.2 mph - N/A   Clear
2:55 AM 74.5 °F - 68.5 °F 82% 29.89 in 10.0 mi South 9.2 mph - N/A   Clear
3:15 AM 74.3 °F - 68.4 °F 82% 29.89 in 10.0 mi South 9.2 mph - N/A   Scattered Clouds
3:35 AM 73.8 °F - 68.4 °F 83% 29.89 in 10.0 mi South 10.4 mph - N/A   Scattered Clouds
3:55 AM 73.4 °F - 68.2 °F 84% 29.88 in 10.0 mi South 10.4 mph - N/A   Clear
4:35 AM 73.0 °F - 68.2 °F 85% 29.89 in 10.0 mi South 9.2 mph - N/A   Clear
4:55 AM 73.0 °F - 68.2 °F 85% 29.89 in 10.0 mi South 10.4 mph - N/A   Clear
5:15 AM 73.0 °F - 68.2 °F 85% 29.90 in 10.0 mi South 6.9 mph - N/A   Scattered Clouds
5:35 AM 72.5 °F - 68.2 °F 86% 29.91 in 10.0 mi SSW 6.9 mph - N/A   Scattered Clouds
5:55 AM 71.6 °F - 68.0 °F 88% 29.93 in 7.0 mi SSW 3.5 mph - N/A   Scattered Clouds
6:15 AM 70.9 °F - 68.2 °F 91% 29.94 in 7.0 mi SW 3.5 mph - N/A   Scattered Clouds
6:35 AM 71.6 °F - 69.8 °F 94% 29.94 in 7.0 mi Calm Calm - N/A   Mostly Cloudy
6:55 AM 71.6 °F - 69.8 °F 94% 29.94 in 7.0 mi Calm Calm - N/A   Overcast
7:15 AM 72.7 °F - 69.4 °F 90% 29.95 in 7.0 mi Calm Calm - N/A   Overcast
7:35 AM 73.4 °F - 69.8 °F 88% 29.94 in 7.0 mi South 6.9 mph - N/A   Mostly Cloudy
7:55 AM 74.3 °F - 69.6 °F 85% 29.94 in 10.0 mi South 6.9 mph - N/A   Scattered Clouds
8:15 AM 75.7 °F - 70.0 °F 82% 29.93 in 7.0 mi SSW 10.4 mph - N/A   Clear
8:35 AM 77.0 °F - 70.2 °F 79% 29.94 in 10.0 mi SSW 11.5 mph - N/A   Clear
8:55 AM 77.0 °F - 69.8 °F 78% 29.96 in 10.0 mi SW 13.8 mph 19.6 mph N/A   Scattered Clouds
9:15 AM 77.4 °F - 69.8 °F 77% 29.96 in 10.0 mi SW 16.1 mph 21.9 mph N/A   Scattered Clouds
9:35 AM 77.7 °F - 69.8 °F 76% 29.96 in 10.0 mi SSW 10.4 mph - N/A   Mostly Cloudy
9:55 AM 78.1 °F - 69.4 °F 75% 29.96 in 10.0 mi SSW 12.7 mph - N/A   Mostly Cloudy
10:35 AM 79.9 °F - 68.9 °F 69% 29.94 in 10.0 mi SSW 12.7 mph 20.7 mph N/A   Scattered Clouds
10:55 AM 79.9 °F - 67.8 °F 66% 29.93 in 10.0 mi SSW 13.8 mph 23.0 mph N/A   Scattered Clouds
11:15 AM 81.7 °F 84.5 °F 68.2 °F 63% 29.93 in 10.0 mi SSW 15.0 mph 21.9 mph N/A   Scattered Clouds
11:35 AM 81.3 °F 83.8 °F 67.1 °F 62% 29.93 in 10.0 mi SW 15.0 mph 20.7 mph N/A   Scattered Clouds
11:55 AM 82.8 °F 84.7 °F 65.8 °F 56% 29.93 in 10.0 mi SSW 17.3 mph 25.3 mph N/A   Scattered Clouds
12:15 PM 83.3 °F 85.3 °F 65.8 °F 55% 29.92 in 10.0 mi SSW 17.3 mph 21.9 mph N/A   Scattered Clouds
12:35 PM 84.2 °F 86.3 °F 65.8 °F 54% 29.92 in 10.0 mi SW 16.1 mph 21.9 mph N/A   Scattered Clouds
12:55 PM 83.8 °F 85.8 °F 65.5 °F 54% 29.92 in 10.0 mi SW 13.8 mph 24.2 mph N/A   Scattered Clouds
1:15 PM 85.5 °F 86.8 °F 64.0 °F 49% 29.92 in 10.0 mi SW 13.8 mph 26.5 mph N/A   Scattered Clouds
1:35 PM 85.6 °F 87.1 °F 64.6 °F 49% 29.92 in 10.0 mi SW 16.1 mph 24.2 mph N/A   Scattered Clouds
1:55 PM 85.8 °F 87.9 °F 65.7 °F 51% 29.91 in 10.0 mi SSW 13.8 mph 20.7 mph N/A   Scattered Clouds
2:15 PM 86.2 °F 88.4 °F 66.0 °F 51% 29.91 in 10.0 mi SSW 13.8 mph - N/A   Scattered Clouds
2:35 PM 85.5 °F 87.1 °F 64.9 °F 50% 29.91 in 10.0 mi South 17.3 mph - N/A   Clear
2:55 PM 86.2 °F 88.2 °F 65.7 °F 50% 29.90 in 10.0 mi SSW 13.8 mph 20.7 mph N/A   Clear
3:15 PM 85.3 °F 86.8 °F 64.9 °F 50% 29.90 in 10.0 mi SSW 16.1 mph 21.9 mph N/A   Clear
3:35 PM 86.7 °F 88.7 °F 65.7 °F 49% 29.89 in 10.0 mi South 15.0 mph 19.6 mph N/A   Scattered Clouds
3:55 PM 85.6 °F 87.4 °F 65.1 °F 50% 29.88 in 10.0 mi SSW 13.8 mph - N/A   Scattered Clouds
4:15 PM 85.5 °F 86.8 °F 64.6 °F 49% 29.87 in 10.0 mi SSW 15.0 mph 18.4 mph N/A   Scattered Clouds
4:35 PM 86.2 °F 87.6 °F 64.4 °F 48% 29.87 in 10.0 mi South 13.8 mph 19.6 mph N/A   Scattered Clouds
4:55 PM 85.3 °F 86.6 °F 64.0 °F 49% 29.86 in 10.0 mi South 13.8 mph 20.7 mph N/A   Scattered Clouds
5:15 PM 85.3 °F 86.6 °F 64.2 °F 49% 29.86 in 10.0 mi SSW 13.8 mph 21.9 mph N/A   Scattered Clouds
5:35 PM 86.9 °F 88.3 °F 64.2 °F 47% 29.84 in 10.0 mi South 11.5 mph 21.9 mph N/A   Scattered Clouds
5:55 PM 86.7 °F 87.5 °F 63.0 °F 45% 29.84 in 10.0 mi South 16.1 mph - N/A   Scattered Clouds
6:15 PM 86.0 °F 86.8 °F 63.1 °F 46% 29.83 in 10.0 mi South 18.4 mph 24.2 mph N/A   Scattered Clouds
6:35 PM 85.3 °F 86.6 °F 64.4 °F 49% 29.82 in 10.0 mi South 11.5 mph 20.7 mph N/A   Clear
6:55 PM 84.9 °F 87.1 °F 66.0 °F 53% 29.82 in 10.0 mi South 12.7 mph - N/A   Clear
7:15 PM 83.8 °F 86.3 °F 66.4 °F 56% 29.82 in 10.0 mi South 13.8 mph 18.4 mph N/A   Clear
7:35 PM 82.4 °F 84.6 °F 66.4 °F 58% 29.83 in 10.0 mi South 13.8 mph - N/A   Clear
7:55 PM 81.0 °F 83.4 °F 67.1 °F 63% 29.84 in 10.0 mi South 6.9 mph - N/A   Clear
8:15 PM 80.2 °F 83.0 °F 68.4 °F 67% 29.83 in 10.0 mi SSE 10.4 mph - N/A   Clear
8:35 PM 79.9 °F - 68.9 °F 69% 29.84 in 10.0 mi SSE 13.8 mph - N/A   Clear
8:55 PM 78.8 °F - 69.8 °F 74% 29.84 in 10.0 mi SSE 12.7 mph - N/A   Clear
9:15 PM 78.4 °F - 68.9 °F 72% 29.84 in 10.0 mi SSE 12.7 mph 17.3 mph N/A   Clear
9:35 PM 78.3 °F - 68.9 °F 73% 29.83 in 10.0 mi SSE 13.8 mph - N/A   Clear
9:55 PM 78.3 °F - 68.9 °F 73% 29.83 in 10.0 mi SSE 15.0 mph - N/A   Clear
10:15 PM 78.3 °F - 68.9 °F 73% 29.83 in 10.0 mi South 13.8 mph 21.9 mph N/A   Clear
10:35 PM 78.4 °F - 69.1 °F 73% 29.84 in 10.0 mi South 15.0 mph 23.0 mph N/A   Clear
10:55 PM 78.4 °F - 69.1 °F 73% 29.86 in 10.0 mi South 11.5 mph 19.6 mph N/A   Clear
11:15 PM 78.4 °F - 69.1 °F 73% 29.88 in 10.0 mi South 13.8 mph 20.7 mph N/A   Clear
11:35 PM 78.3 °F - 68.9 °F 73% 29.89 in 10.0 mi South 12.7 mph 18.4 mph N/A   Clear
11:55 PM 78.4 °F - 69.1 °F 73% 29.89 in 10.0 mi South 12.7 mph 19.6 mph N/A   Clear